Location: *
(33.0751°S, 83.5964°E)
Time: 05:14:35
(UTC+00:00)

Daily predictions for brighter satellites

Satellite Brightness Start Highest point End
(mag) Time Altitude Azimuth Time Altitude Azimuth Time Altitude Azimuth
Cosmos 1733 3.6 00:05:44 38° W 00:05:59 38° W 00:09:31 10° NNW
Chandra Rocket (1) 3.3 00:05:38 14° NNW 00:06:12 15° NNW 00:07:59 10° NNE
Cosmos 1805 3.7 00:08:10 34° WSW 00:08:55 37° W 00:12:32 10° NNW
H-2A R/B 1.9 00:05:53 10° N 00:10:46 67° WNW 00:15:45 10° SSW
CZ-2D R/B 3.2 00:12:51 10° N 00:16:40 69° W 00:20:33 10° SSW
Radarsat 4.5 00:11:52 10° N 00:17:05 79° WNW 00:22:22 10° SSW
Cosmos 2026 Rocket 4.3 00:11:33 10° SSW 00:17:11 39° W 00:22:49 10° NNW
COSMOS 2455 3.9 00:17:10 21° WSW 00:17:59 21° SW 00:22:31 10° S
ADEOS 3.9 00:13:32 10° N 00:18:30 44° W 00:23:32 10° SSW
APEX 3.4 00:15:33 10° NNW 00:18:55 71° ENE 00:23:07 10° SSE
Cosmos 1782 Rocket 4.0 00:15:49 10° S 00:20:11 63° E 00:24:30 10° NNE
CORIOLIS 4.2 00:16:13 10° N 00:21:38 70° WNW 00:27:09 10° SSW
Cosmos 1470 4.0 00:17:55 10° S 00:21:43 44° E 00:25:25 10° NNE
USA 81 4.2 00:18:06 10° NNW 00:23:14 51° W 00:28:26 10° S
USA 234 4.3 00:19:09 10° SSE 00:24:16 25° SSW 00:27:44 16° WSW
Cosmos 1908 Rocket 3.7 00:20:46 10° SSW 00:25:04 52° W 00:29:16 10° N
Tiangong 3.1 00:24:30 15° SSW 00:25:41 18° S 00:28:00 10° SE
USA 281 4.1 00:19:58 10° NE 00:26:12 48° ESE 00:32:28 10° S
Meteor 1-23 Rocket 4.3 00:20:46 10° NNW 00:26:17 54° W 00:31:59 10° S
Aureole 3 Rocket 3.9 00:22:34 10° N 00:27:45 81° W 00:35:14 10° S
CZ-4B R/B 3.2 00:24:29 10° N 00:28:12 43° W 00:32:10 10° SSW
Cosmos 1655 Rocket 4.4 00:25:52 10° S 00:32:13 68° E 00:38:26 10° NNE
Cosmos 2242 Rocket 3.9 00:28:30 10° NNW 00:32:54 46° W 00:37:22 10° S
Cosmos 292 Rocket 3.8 00:28:20 10° NNW 00:33:12 87° WSW 00:38:08 10° SSE
Iridium 2 3.6 00:31:05 10° S 00:34:54 78° W 00:38:39 10° N
Kakehashi 4.2 00:28:08 10° WNW 00:35:05 57° NNE 00:41:04 10° E
USA 306 4.5 00:34:43 14° W 00:36:36 19° WNW 00:39:33 10° N
Cosmos 2369 Rocket 3.1 00:33:11 10° S 00:38:46 51° ESE 00:44:14 10° NE
Cosmos 1626 3.3 00:35:38 10° NNE 00:39:09 46° E 00:42:43 10° SSE
SJ-11-01 4.3 00:38:47 10° N 00:43:27 71° WNW 00:48:11 10° SSW
Okean 3 4.4 00:40:10 10° NW 00:43:40 26° WSW 00:47:14 10° SSW
X-37B 2.7 00:43:19 11° SW 00:44:21 12° SSW 00:45:39 10° SSE
CZ-4 R/B 3.9 00:45:46 10° ENE 00:48:41 20° ESE 00:51:40 10° SSE
SMAP 4.1 00:45:07 10° NNW 00:49:02 27° W 00:53:01 10° SW
Cosmos 1242 Rocket 2.6 00:47:05 10° SSW 00:50:40 56° W 00:54:11 10° N
SL-08 RB Rocket 3.7 00:52:13 10° N 00:56:38 60° W 01:01:07 10° SSW
Cosmos 1943 Rocket 2.9 00:52:19 10° SW 00:57:19 34° WNW 01:02:19 10° NNW
Cosmos 1674 2.5 00:54:26 10° N 00:58:07 76° W 01:01:54 10° S
Cosmos 1707 3.2 00:54:33 10° NNW 00:58:15 41° W 01:01:59 10° S
Cosmos 2084 3.8 00:53:47 10° NNW 00:58:33 87° ENE 01:03:27 10° SSE
COSMO-SKYMED 1 3.0 00:54:43 10° S 00:58:52 42° WSW 01:02:58 10° NW
PAYLOAD B 4.3 00:53:32 10° NNE 00:59:09 87° WNW 01:04:48 10° SSW
Delta 2 Rocket 4.3 00:55:35 10° WNW 01:00:47 73° NNE 01:06:22 10° ESE
Sich 1 Rocket 4.1 01:00:14 10° S 01:04:40 65° E 01:09:02 10° NNE
Cosmos 1300 Rocket 3.5 01:00:39 10° S 01:05:01 72° W 01:09:21 10° N
Cosmos 1908 4.5 01:02:05 10° S 01:05:47 44° E 01:09:26 10° NNE
Cosmos 2266 Rocket 4.2 01:00:03 10° SSW 01:06:23 59° W 01:12:32 10° N
Cosmos 1269 Rocket 4.4 01:02:14 10° SSW 01:07:21 48° WNW 01:12:23 10° N
SeaSat 1 4.4 11:53:58 10° E 11:54:37 10° ENE 11:55:16 10° ENE
